Location: McFarlands Corners
(41.4117°N, 81.3382°W)
Time: 18:34:17
(UTC+00:00)

Tiangong - Pass Details

Date: 17 October 2024
Orbit: 383 x 395 km, 41.5° (Epoch: 11 November)

Event Time Altitude Azimuth Distance (km) Brightness Sun altitude
Exits shadow 09:26:50 - 147° (SSE) 1,676 1.4 -25.6°
Enters shadow 10:24:40 -71° 254° (WSW) 12,500 5.4 -14.9°
Maximum altitude 11:03:36 32° 156° (SSE) 702 -0.5 -7.6°
